Regional Weather Roundup
Issued by NWS Mobile, AL

Home | Current Version | Previous Version | Text Only | Print | Product List | Glossary On
Versions: 1 2 3 4 5 6 7 8 9 10 11 12 13 14 15 16 17 18 19 20 21 22 23 24 25 26 27 28
000
ASUS44 KMOB 231512
RWRMOB
REGIONAL WEATHER ROUNDUP
NATIONAL WEATHER SERVICE MOBILE AL
900 AM CST TUE JAN 23 2018

NOTE: "FAIR" INDICATES FEW OR NO CLOUDS BELOW 12,000 FEET WITH NO
      SIGNIFICANT WEATHER AND/OR OBSTRUCTIONS TO VISIBILITY.

  * THESE STATIONS ARE PART OF THE UNIVERSITY OF SOUTH ALABAMA
    MESONET AND ARE NOT UNDER NWS OR FAA QUALITY CONTROL.

ALZ061>064-231600-
COASTAL ALABAMA

CITY           SKY/WX    TMP DP  RH WIND       PRES   REMARKS
MOBILE REG APT FAIR      52  31  44 VRB6      30.15R
BROOKLEY FIELD FAIR      55  30  38 NW9       30.16R
USA CAMPUS*    NOT AVBL
DOG RIVER*     NOT AVBL


CITY           SKY/WX    TMP DP  RH WIND       PRES   REMARKS
GULF SHORES    FAIR      51  33  50 N10G16    30.15R

$$

ALZ051>060-231600-
INTERIOR SOUTHWEST AND SOUTH CENTRAL ALABAMA

CITY           SKY/WX    TMP DP  RH WIND       PRES   REMARKS
GREENVILLE     FAIR      50  29  44 NW8       30.09R
EVERGREEN      FAIR      51  31  46 VRB6      30.12R
ATMORE*          N/A    N/A N/A N/A NW12        N/A
ANDALUSIA/OPP    N/A     54  31  41 MISG      30.11R
ANDALUSIA*       N/A     50  32  50 W8        30.10R
FLORALA APT    LGT RAIN  54  30  40 VRB7      30.13R
FLORALA*         N/A     54  30  40 W6        30.84R

$$

FLZ001>006-231600-
WESTERN FLORIDA PANHANDLE

CITY           SKY/WX    TMP DP  RH WIND       PRES   REMARKS
PENSACOLA      FAIR      55  32  41 NW9       30.13R
NAS PENSACOLA  PTSUNNY   53  31  42 NW12      30.14R
MILTON         FAIR      51  33  50 NW8       30.13R
WHTNG S FIELD  FAIR      54  34  46 NW8       30.13R


CITY           SKY/WX    TMP DP  RH WIND       PRES   REMARKS
JAY*             N/A     50  32  50 NW6       30.14R
DUKE FIELD     PTSUNNY   52  33  47 NW7       30.12R
CRESTVIEW      FAIR      54  32  43 NW7       30.14R
VALPARAISO     PTSUNNY   54  33  44 NW8       30.12R
DESTIN         FAIR      56  32  40 NW8       30.13R

$$

MSZ076-079-231600-
INTERIOR SOUTHEAST MISSISSIPPI

CITY           SKY/WX    TMP DP  RH WIND       PRES   REMARKS
LEAKESVILLE*     N/A     50  28  43 W7        30.15R
AGRICOLA*        N/A     50  30  46 NW6       30.14R

$$

MARINE OBSERVATIONS

STATION/POSITION TIME  TEMP    WIND        PRES    WAVE
                       AIR SEA DIR/SP/G            HT/PER
                 (UTC) (F)     (DEG/KT/KT) (MB)    (FT/S)
PASCAGOULA       1448   51     330/  8/ 10 1021.1R
PETIT BOIS ISLND 1448   49     320/ 12/ 14 1022.1R
GRAND BAY        1345   47     290/  3     1021.0S
KATRINA CUT      1430   45     330/ 10     1021.0R
CEDAR POINT      1430   47     330/  5     1020.3R
E DAUPHIN ISLAND 1500   49     300/  8/  8 1020.9R
MIDDLE BAY LIGHT 1430   51     360/  4     1020.3R
USCG MOBILE BAY  1448   52 52  310/  5/ 10 1021.0R
STATE DOCKS      1436   56 50              1020.6R
MEAHER PARK      1430   50     320/  3     1021.0R
WEEKS BAY        1345   41                 1020.0R
FORT MORGAN      1448   48     320/  8/  8   N/A
12 S ORANGE BCH  NOT AVBL
PENSACOLA BAY    1436   52 51  330/  4/  8 1020.8R
64 S DAUPHIN ISL 1500   58 67  340/ 16/ 21 1021.9
67 S FORT MORGAN 1430   59                 1021.0R

$$

SELECTED LOCATIONS ACROSS THE REGION

CITY           SKY/WX    TMP DP  RH WIND       PRES   REMARKS
NEW ORLEANS    FAIR      55  31  39 NW12      30.20R
GULFPORT       FAIR      52  30  43 NW8       30.16R
PASCAGOULA AP  FAIR      53  27  36 NW8       30.16R
PASCAGOULA*      N/A     52  32  46 NW7         N/A
HATTIESBURG    FAIR      51  28  41 NW14G24   30.16R
LAUREL         FAIR      49  30  48 W9G17     30.17R
MERIDIAN       FAIR      49  30  48 W9G16     30.14R
JACKSON        FAIR      47  28  47 W13       30.15R
MONTGOMERY     FAIR      50  31  48 W10       30.10R
TROY           FAIR      51  31  46 NW8       30.10R
ASHFORD*         N/A     50  32  50 W8        30.10R
DOTHAN         FAIR      54  30  40 NW14      30.13R
PANAMA CITY    FAIR      56  35  45 NW13      30.11R

$$





USA.gov is the U.S. government's official web portal to all federal, state and local government web resources and services.